"Timestamp","TZ","WindDir_Mean (deg)","WindSpd_Mean (km/h)","WindSpd_Min (km/h)","WindSpd_Max (km/h)","Temp_Mean (deg)","RH_Mean (%)","MSLP_Mean (hPa)","Rain_Acc (mm)","Rain_Intensity (mm/h)","Hail_Acc (hits/cm2)","Hail_Intensity (hits/cm2hr)","Solar_Mean (W/m2)"
2022/04/11 00:00:00.006,n,252,5.4,3.96,6.12,20.9,80.9,1019.02,0,0,0,0,0.029602
2022/04/11 00:01:00.000,n,269,5.4,3.96,6.48,21,81.3,1019.02,0,0,0,0,0.024376
2022/04/11 00:02:00.000,n,273,3.96,3.96,4.32,21,80.9,1019.02,0,0,0,0,0.025215
2022/04/11 00:03:00.000,n,181,3.24,1.8,6.84,21,80.2,1019.02,0,0,0,0,0.028725
2022/04/11 00:04:00.000,n,195,1.8,1.08,5.4,20.9,80,1019.02,0,0,0,0,0.028725
2022/04/11 00:05:00.000,n,181,2.88,0.72,4.68,20.9,79.9,1019.02,0,0,0,0,0.026093
2022/04/11 00:06:00.006,n,266,6.48,6.12,7.56,20.8,79.9,1019.02,0,0,0,0,0.026093
2022/04/11 00:07:00.003,n,265,6.12,5.4,6.84,20.8,80.3,1019.02,0,0,0,0,0.028725
2022/04/11 00:08:00.000,n,242,4.32,2.52,5.4,20.8,79.9,1019.02,0,0,0,0,0.027847
2022/04/11 00:09:00.013,n,225,3.6,2.16,4.68,20.8,80,1019.02,0,0,0,0,0.022621
2022/04/11 00:10:00.000,n,260,6.84,4.68,8.28,20.8,80.6,1019.02,0,0,0,0,0.024376
2022/04/11 00:11:00.000,n,263,2.88,2.88,3.24,20.9,80.5,1018.92,0,0,0,0,0.028725
2022/04/11 00:12:00.005,n,270,4.32,4.32,4.68,20.9,79.8,1018.92,0,0,0,0,0.023499
2022/04/11 00:13:00.002,n,263,6.12,5.4,6.12,20.8,79.7,1018.92,0,0,0,0,0.022621
2022/04/11 00:14:00.000,n,264,5.4,5.04,5.76,20.8,79.6,1018.92,0,0,0,0,0.026093
2022/04/11 00:15:00.000,n,262,5.04,5.04,5.4,20.8,79.6,1018.92,0,0,0,0,0.026093
2022/04/11 00:16:00.010,n,224,2.88,1.8,3.6,20.8,79.9,1018.92,0,0,0,0,0.022621
2022/04/11 00:17:00.007,n,260,5.04,3.6,6.12,20.8,80.4,1018.92,0,0,0,0,0.024376
2022/04/11 00:18:00.004,n,241,5.04,4.68,5.76,20.8,80.4,1018.92,0,0,0,0,0.025215
2022/04/11 00:19:00.001,n,262,6.12,5.4,6.48,20.8,79.9,1018.92,0,0,0,0,0.027008
2022/04/11 00:20:00.000,n,262,3.96,2.16,5.04,20.8,80.5,1018.92,0,0,0,0,0.024376
2022/04/11 00:21:00.000,n,266,2.16,1.8,2.52,20.8,79.9,1018.92,0,0,0,0,0.027008
2022/04/11 00:22:00.000,n,226,2.52,2.52,2.88,20.9,80.5,1018.92,0,0,0,0,0.022621
2022/04/11 00:23:00.006,n,289,1.8,1.08,2.16,20.9,80.1,1018.92,0,0,0,0,0.027008
2022/04/11 00:24:00.005,n,275,4.32,3.6,4.68,20.8,79.8,1018.82,0,0,0,0,0.024376
2022/04/11 00:25:00.001,n,273,3.96,3.6,4.68,20.8,79.6,1018.82,0,0,0,0,0.022621
2022/04/11 00:26:00.014,n,218,3.96,3.24,4.68,20.8,80.2,1018.82,0,0,0,0,0.024376
2022/04/11 00:27:00.011,n,171,1.8,1.08,6.48,20.8,79.9,1018.82,0,0,0,0,0.022621
2022/04/11 00:28:00.000,n,209,0.72,0,1.08,20.7,79.7,1018.82,0,0,0,0,0.017433
2022/04/11 00:29:00.000,n,239,1.8,1.8,2.16,20.7,79.7,1018.82,0,0,0,0,0.020905
2022/04/11 00:30:00.002,n,284,2.16,1.8,2.52,20.7,80,1018.82,0,0,0,0,0.01915
2022/04/11 00:31:00.000,n,269,2.52,2.16,2.88,20.7,80.1,1018.82,0,0,0,0,0.024376
2022/04/11 00:32:00.000,n,237,2.16,1.8,2.16,20.7,80,1018.82,0,0,0,0,0.020905
2022/04/11 00:33:00.010,n,244,2.16,1.8,3.96,20.7,80.6,1018.72,0,0,0,0,0.020905
2022/04/11 00:34:00.006,n,174,0.36,0.36,0.72,20.7,80.4,1018.72,0,0,0,0,0.01915
2022/04/11 00:35:00.004,n,208,1.8,1.44,5.04,20.7,80.1,1018.72,0,0,0,0,0.021782
2022/04/11 00:36:00.001,n,163,1.44,1.08,1.8,20.7,79.9,1018.72,0,0,0,0,0.01915
2022/04/11 00:37:00.000,n,195,2.52,2.16,2.52,20.7,80,1018.72,0,0,0,0,0.032196
2022/04/11 00:38:00.000,n,195,1.44,1.08,2.16,20.6,79.9,1018.72,0,0,0,0,0.031319
2022/04/11 00:39:00.000,n,259,1.8,1.44,2.16,20.6,79.9,1018.82,0,0,0,0,0.033913
2022/04/11 00:40:00.006,n,302,0.36,0.36,1.08,20.6,80,1018.82,0,0,0,0,0.033913
2022/04/11 00:41:00.003,n,297,2.16,1.8,2.52,20.6,80.1,1018.72,0,0,0,0,0.029602
2022/04/11 00:42:00.000,n,230,1.44,0.36,2.16,20.6,80.2,1018.72,0,0,0,0,0.033035
2022/04/11 00:43:00.000,n,258,3.24,2.88,3.6,20.6,80.1,1018.72,0,0,0,0,0.031319
2022/04/11 00:44:00.010,n,204,2.16,1.8,4.32,20.6,80.1,1018.72,0,0,0,0,0.034828
2022/04/11 00:45:00.008,n,251,3.24,2.16,4.68,20.6,80.8,1018.72,0,0,0,0,0.030441
2022/04/11 00:46:00.000,n,223,2.88,1.8,3.6,20.6,80.6,1018.72,0,0,0,0,0.033035
2022/04/11 00:47:00.002,n,186,3.24,2.52,5.04,20.6,80.5,1018.72,0,0,0,0,0.028687
2022/04/11 00:48:00.005,n,194,0.72,0.72,1.08,20.6,80.4,1018.72,0,0,0,0,0.030441
2022/04/11 00:49:00.006,n,224,1.44,0.36,2.88,20.6,80.4,1018.62,0,0,0,0,0.038261
2022/04/11 00:50:00.003,n,209,1.8,1.08,5.04,20.6,80.4,1018.62,0,0,0,0,0.035667
2022/04/11 00:51:00.000,n,211,1.44,1.08,1.44,20.5,80.4,1018.62,0,0,0,0,0.038261
2022/04/11 00:52:00.000,n,45,1.8,1.08,3.6,20.5,80.6,1018.62,0,0,0,0,0.035667
2022/04/11 00:53:00.011,n,104,1.44,1.08,1.8,20.5,80.7,1018.62,0,0,0,0,0.037422
2022/04/11 00:54:00.008,n,192,0.72,0.72,1.08,20.5,80.8,1018.62,0,0,0,0,0.038261
2022/04/11 00:55:00.000,n,113,1.8,1.08,2.16,20.5,80.8,1018.62,0,0,0,0,0.035667
2022/04/11 00:56:00.002,n,186,0.72,0,1.44,20.5,80.9,1018.62,0,0,0,0,0.033913
2022/04/11 00:57:00.000,n,68,1.08,0.36,1.8,20.5,81,1018.62,0,0,0,0,0.033035
2022/04/11 00:58:00.000,n,249,1.8,1.44,2.16,20.5,81.2,1018.62,0,0,0,0,0.036545
2022/04/11 00:59:00.000,n,118,1.44,1.08,2.16,20.5,81,1018.62,0,0,0,0,0.035667
2022/04/11 01:00:00.008,n,284,3.6,3.24,3.6,20.5,81.1,1018.62,0,0,0,0,0.029602
2022/04/11 01:01:00.006,n,300,0.72,0.72,1.08,20.5,81.2,1018.62,0,0,0,0,0.030441
2022/04/11 01:02:00.003,n,238,2.52,1.8,2.88,20.5,81.3,1018.52,0,0,0,0,0.030441
2022/04/11 01:03:00.000,n,252,2.52,2.16,3.6,20.5,81.5,1018.52,0,0,0,0,0.029602
2022/04/11 01:04:00.000,n,241,4.68,4.32,4.68,20.5,81.5,1018.52,0,0,0,0,0.02697
2022/04/11 01:05:00.000,n,199,2.88,2.16,3.6,20.4,81.5,1018.52,0,0,0,0,0.025253
2022/04/11 01:06:00.000,n,263,5.76,4.32,6.48,20.4,81.6,1018.52,0,0,0,0,0.027847
2022/04/11 01:07:00.006,n,206,3.24,2.88,3.96,20.4,81.8,1018.52,0,0,0,0,0.028687
2022/04/11 01:08:00.003,n,152,1.8,1.44,2.16,20.4,81.6,1018.52,0,0,0,0,0.029602
2022/04/11 01:09:00.000,n,244,3.24,2.52,3.6,20.4,81.6,1018.42,0,0,0,0,0.026093
2022/04/11 01:10:00.000,n,275,5.04,4.32,5.4,20.3,81.6,1018.42,0,0,0,0,0.028687
2022/04/11 01:11:00.011,n,253,3.96,0.36,5.04,20.3,81.6,1018.42,0,0,0,0,0.028687
2022/04/11 01:12:00.008,n,254,4.32,4.32,4.68,20.3,82.1,1018.42,0,0,0,0,0.026093
2022/04/11 01:13:00.000,n,222,3.24,1.8,3.96,20.4,82.4,1018.42,0,0,0,0,0.027847
2022/04/11 01:14:00.002,n,256,4.32,3.6,5.76,20.4,82.6,1018.42,0,0,0,0,0.024338
2022/04/11 01:15:00.000,n,251,1.8,1.08,2.52,20.3,82.2,1018.42,0,0,0,0,0.02697
2022/04/11 01:16:00.000,n,283,3.96,3.96,4.32,20.3,82.4,1018.42,0,0,0,0,0.026093
2022/04/11 01:17:00.000,n,257,3.96,3.24,4.32,20.3,82.2,1018.32,0,0,0,0,0.025253
2022/04/11 01:18:00.008,n,239,2.88,2.16,3.6,20.2,82.1,1018.42,0,0,0,0,0.026093
2022/04/11 01:19:00.005,n,289,3.24,2.52,3.96,20.2,82.1,1018.32,0,0,0,0,0.02346
2022/04/11 01:20:00.002,n,265,2.16,1.8,2.88,20.2,82.1,1018.32,0,0,0,0,0.02346
2022/04/11 01:21:00.015,n,201,2.88,2.16,4.32,20.2,82.5,1018.32,0,0,0,0,0.024338
2022/04/11 01:22:00.000,n,223,3.6,2.52,3.96,20.2,82.4,1018.32,0,0,0,0,0.025253
2022/04/11 01:23:00.000,n,225,3.24,2.88,3.6,20.2,82.5,1018.22,0,0,0,0,0.025253
2022/04/11 01:24:00.000,n,249,3.96,2.52,4.32,20.1,82.5,1018.22,0,0,0,0,0.021744
2022/04/11 01:25:00.004,n,294,2.16,1.8,2.88,20.1,82.4,1018.22,0,0,0,0,0.020866
2022/04/11 01:26:00.001,n,242,2.52,1.8,3.6,20.1,82.2,1018.22,0,0,0,0,0.021744
2022/04/11 01:27:00.000,n,218,2.52,2.52,2.88,20.1,82.2,1018.22,0,0,0,0,0.020866
2022/04/11 01:28:00.000,n,277,3.24,2.52,4.32,20.1,82.6,1018.22,0,0,0,0,0.029564
2022/04/11 01:29:00.009,n,256,3.24,1.8,3.96,20.1,82.4,1018.22,0,0,0,0,0.030441
2022/04/11 01:30:00.007,n,323,2.88,2.16,3.6,20,82.3,1018.22,0,0,0,0,0.031319
2022/04/11 01:31:00.000,n,250,3.24,2.16,4.32,20,82.9,1018.22,0,0,0,0,0.029564
2022/04/11 01:32:00.001,n,243,4.68,4.32,5.04,20.1,82.9,1018.22,0,0,0,0,0.029564
2022/04/11 01:33:00.000,n,218,4.32,3.6,4.68,20.1,82.8,1018.12,0,0,0,0,0.028687
2022/04/11 01:34:00.000,n,200,3.24,2.52,4.32,20.1,82.6,1018.22,0,0,0,0,0.032196
2022/04/11 01:35:00.009,n,302,3.24,2.52,4.32,20,82.6,1018.22,0,0,0,0,0.031319
2022/04/11 01:36:00.006,n,181,3.24,0.72,7.2,20,82.6,1018.12,0,0,0,0,0.031319
2022/04/11 01:37:00.003,n,236,1.44,1.08,1.8,20,82.7,1018.22,0,0,0,0,0.037384
2022/04/11 01:38:00.000,n,260,1.44,0.72,2.16,20,82.5,1018.22,0,0,0,0,0.030441
2022/04/11 01:39:00.013,n,265,2.88,2.52,3.24,20,82.3,1018.22,0,0,0,0,0.03479
2022/04/11 01:40:00.000,n,267,4.32,3.96,4.68,20,82.6,1018.22,0,0,0,0,0.031319
2022/04/11 01:41:00.000,n,225,3.24,0.72,6.84,20,82.8,1018.12,0,0,0,0,0.029564
2022/04/11 01:42:00.004,n,189,2.88,2.52,3.96,20,82.8,1018.12,0,0,0,0,0.028687
2022/04/11 01:43:00.001,n,286,3.24,1.08,4.32,20,83,1018.12,0,0,0,0,0.028687
2022/04/11 01:44:00.000,n,251,1.8,1.44,2.16,20,82.8,1018.12,0,0,0,0,0.032196
2022/04/11 01:45:00.000,n,256,5.4,5.04,6.12,20,82.5,1018.12,0,0,0,0,0.030441
2022/04/11 01:46:00.007,n,246,2.52,1.8,3.24,20,82.4,1018.12,0,0,0,0,0.030441
2022/04/11 01:47:00.005,n,278,3.24,2.88,3.6,19.9,82.3,1018.12,0,0,0,0,0.024338
2022/04/11 01:48:00.002,n,282,3.96,3.6,4.68,19.9,82.4,1018.12,0,0,0,0,0.027809
2022/04/11 01:49:00.000,n,266,5.04,1.8,6.84,19.9,83.1,1018.12,0,0,0,0,0.029564
2022/04/11 01:50:00.000,n,230,4.32,3.96,4.68,20,83.1,1018.12,0,0,0,0,0.028687
2022/04/11 01:51:00.000,n,248,4.32,3.6,5.04,20,82.9,1018.12,0,0,0,0,0.025215
2022/04/11 01:52:00.006,n,280,2.88,1.8,3.6,20,83.2,1018.12,0,0,0,0,0.027809
2022/04/11 01:53:00.003,n,262,2.16,2.16,2.52,20,82.8,1018.12,0,0,0,0,0.022583
2022/04/11 01:54:00.000,n,245,3.96,3.6,4.68,20,82.6,1018.12,0,0,0,0,0.028687
2022/04/11 01:55:00.000,n,262,3.6,1.08,4.32,20,82.7,1018.12,0,0,0,0,0.027809
2022/04/11 01:56:00.009,n,277,2.16,0.72,3.6,19.9,82.7,1018.12,0,0,0,0,0.025215
2022/04/11 01:57:00.006,n,242,2.16,1.8,2.52,19.9,83,1018.12,0,0,0,0,0.022583
2022/04/11 01:58:00.000,n,270,4.68,4.32,5.04,20,83.7,1018.02,0,0,0,0,0.02346
2022/04/11 01:59:00.001,n,209,2.88,2.16,6.84,20,83,1018.02,0,0,0,0,0.025215
2022/04/11 02:00:00.000,n,240,5.04,1.08,5.76,20,83,1018.02,0,0,0,0,0.02346
2022/04/11 02:01:00.000,n,238,3.96,2.88,5.4,20,83.2,1018.02,0,0,0,0,0.025215
2022/04/11 02:02:00.007,n,269,3.6,0.36,4.32,20,83.3,1018.02,0,0,0,0,0.022583
2022/04/11 02:03:00.004,n,241,2.52,2.16,2.88,20,83,1018.02,0,0,0,0,0.026093
2022/04/11 02:04:00.000,n,259,5.4,3.96,6.48,20,83.1,1018.02,0,0,0,0,0.032196
2022/04/11 02:05:00.014,n,279,2.88,2.16,3.6,20,83,1018.02,0,0,0,0,0.030479
2022/04/11 02:06:00.010,n,217,3.6,2.88,4.68,19.9,82.7,1018.02,0,0,0,0,0.031319
2022/04/11 02:07:00.000,n,248,3.96,3.24,4.68,19.9,82.6,1018.02,0,0,0,0,0.027885
2022/04/11 02:08:00.000,n,226,3.6,1.8,4.68,19.9,83.1,1018.02,0,0,0,0,0.031319
2022/04/11 02:09:00.001,n,210,2.52,1.44,6.84,19.9,83.1,1018.02,0,0,0,0,0.031319
2022/04/11 02:10:00.000,n,230,2.16,1.08,3.96,19.9,83.1,1018.02,0,0,0,0,0.028725
2022/04/11 02:11:00.000,n,277,2.88,0.36,3.24,19.9,83.2,1018.02,0,0,0,0,0.02697
2022/04/11 02:12:00.009,n,274,0.72,0.36,0.72,19.9,82.9,1018.02,0,0,0,0,0.032196
2022/04/11 02:13:00.005,n,263,6.84,6.12,7.56,19.9,82.7,1018.02,0,0,0,0,0.030479
2022/04/11 02:14:00.003,n,275,3.6,3.24,3.96,19.8,82.8,1018.02,0,0,0,0,0.031319
2022/04/11 02:15:00.000,n,230,3.24,2.16,3.96,19.8,83,1018.02,0,0,0,0,0.029602
2022/04/11 02:16:00.000,n,208,2.88,2.52,4.32,19.8,82.9,1018.02,0,0,0,0,0.029602
2022/04/11 02:17:00.000,n,263,9.36,8.28,10.440002,19.8,83.3,1018.02,0,0,0,0,0.029602
2022/04/11 02:18:00.000,n,179,5.4,3.24,7.56,19.8,83.1,1018.02,0,0,0,0,0.031319
2022/04/11 02:19:00.005,n,185,2.88,1.8,4.32,19.8,83.2,1018.02,0,0,0,0,0.030479
2022/04/11 02:20:00.003,n,282,5.04,4.68,5.4,19.8,83.1,1018.02,0,0,0,0,0.025253
2022/04/11 02:21:00.000,n,261,7.2,6.48,7.2,19.8,83.1,1018.02,0,0,0,0,0.026093
2022/04/11 02:22:00.000,n,288,2.52,1.44,3.6,19.8,82.9,1018.02,0,0,0,0,0.026093
2022/04/11 02:23:00.009,n,308,2.52,0.36,3.96,19.8,82.9,1018.02,0,0,0,0,0.02697
2022/04/11 02:24:00.007,n,270,3.24,2.16,4.32,19.7,82.9,1018.02,0,0,0,0,0.025253
2022/04/11 02:25:00.000,n,277,3.24,2.88,3.6,19.7,83,1018.02,0,0,0,0,0.020866
2022/04/11 02:26:00.000,n,202,3.96,2.88,4.68,19.8,83.7,1018.02,0,0,0,0,0.026093
2022/04/11 02:27:00.000,n,201,2.16,1.08,6.12,19.8,83.3,1018.02,0,0,0,0,0.026093
2022/04/11 02:28:00.000,n,207,2.88,2.16,5.04,19.8,83.1,1018.02,0,0,0,0,0.022659
2022/04/11 02:29:00.009,n,248,1.8,1.08,2.16,19.8,83.5,1018.12,0,0,0,0,0.026093
2022/04/11 02:30:00.006,n,293,1.08,0.72,1.44,19.8,83.8,1018.12,0,0,0,0,0.025253
2022/04/11 02:31:00.003,n,267,3.6,2.88,3.96,19.8,83.8,1018.12,0,0,0,0,0.025253
2022/04/11 02:32:00.001,n,246,0.72,0.36,1.08,19.8,83.4,1018.12,0,0,0,0,0.024376
2022/04/11 02:33:00.014,n,165,3.6,2.16,9.36,19.8,83.2,1018.12,0,0,0,0,0.025253
2022/04/11 02:34:00.000,n,159,9.36,9,9.36,19.7,83.2,1018.12,0,0,0,0,0.021744
2022/04/11 02:35:00.000,n,277,5.4,4.68,6.12,19.7,83.6,1018.12,0,0,0,0,0.021744
2022/04/11 02:36:00.000,n,240,3.96,3.24,4.68,19.7,83.4,1018.12,0,0,0,0,0.023499
2022/04/11 02:37:00.003,n,183,2.52,1.08,6.48,19.7,83.4,1018.12,0,0,0,0,0.020866
2022/04/11 02:38:00.000,n,220,3.96,1.44,5.4,19.7,83.6,1018.12,0,0,0,0,0.027885
2022/04/11 02:39:00.009,n,277,5.4,3.6,7.2,19.7,83.4,1018.12,0,0,0,0,0.031319
2022/04/11 02:40:00.007,n,223,3.6,3.24,3.6,19.7,83.3,1018.02,0,0,0,0,0.029602
2022/04/11 02:41:00.003,n,274,4.68,4.32,5.04,19.7,83.5,1018.02,0,0,0,0,0.031319
2022/04/11 02:42:00.003,n,186,5.04,2.88,9,19.6,83.3,1018.02,0,0,0,0,0.026131
2022/04/11 02:43:00.000,n,262,5.76,5.76,6.12,19.6,83.2,1018.02,0,0,0,0,0.030479
2022/04/11 02:44:00.000,n,288,5.76,5.04,7.2,19.6,83.3,1018.02,0,0,0,0,0.030479
2022/04/11 02:45:00.000,n,256,6.12,5.4,7.2,19.6,83.3,1018.02,0,0,0,0,0.031319
2022/04/11 02:46:00.000,n,181,2.16,0.72,6.84,19.5,83.4,1017.92,0,0,0,0,0.027885
2022/04/11 02:47:00.005,n,283,6.12,5.4,6.84,19.5,83.9,1017.92,0,0,0,0,0.029602
2022/04/11 02:48:00.002,n,267,4.68,4.32,5.4,19.6,83.5,1017.92,0,0,0,0,0.029602
2022/04/11 02:49:00.000,n,230,1.44,1.08,1.8,19.5,83.4,1017.92,0,0,0,0,0.028725
2022/04/11 02:50:00.012,n,282,5.4,5.4,5.76,19.5,83.9,1017.92,0,0,0,0,0.028725
2022/04/11 02:51:00.010,n,283,2.52,1.8,2.88,19.5,84.1,1017.92,0,0,0,0,0.028725
2022/04/11 02:52:00.000,n,301,1.44,1.08,1.8,19.5,83.7,1017.92,0,0,0,0,0.029602
2022/04/11 02:53:00.003,n,322,2.16,0.36,3.96,19.5,83.7,1017.92,0,0,0,0,0.027885
2022/04/11 02:54:00.000,n,254,4.32,3.96,4.68,19.5,83.6,1017.92,0,0,0,0,0.028725
2022/04/11 02:55:00.000,n,197,3.24,2.52,5.04,19.5,83.7,1017.92,0,0,0,0,0.022659
2022/04/11 02:56:00.000,n,289,4.32,2.88,5.76,19.5,84.3,1017.92,0,0,0,0,0.027885
2022/04/11 02:57:00.009,n,200,4.32,3.96,5.4,19.5,83.9,1017.92,0,0,0,0,0.030479
2022/04/11 02:58:00.006,n,246,2.88,2.16,4.32,19.5,83.7,1017.92,0,0,0,0,0.027885
2022/04/11 02:59:00.003,n,226,4.68,3.6,5.4,19.4,83.7,1017.92,0,0,0,0,0.029602
2022/04/11 03:00:00.000,n,267,6.84,6.12,7.56,19.4,83.6,1017.92,0,0,0,0,0.028725
2022/04/11 03:01:00.000,n,276,5.04,4.32,5.76,19.4,83.8,1017.92,0,0,0,0,0.026131
2022/04/11 03:02:00.000,n,256,5.4,1.08,6.84,19.3,83.8,1017.92,0,0,0,0,0.024376
2022/04/11 03:03:00.000,n,248,3.6,1.44,5.04,19.3,83.9,1017.92,0,0,0,0,0.026131
2022/04/11 03:04:00.005,n,273,5.4,3.6,6.48,19.3,84.4,1017.92,0,0,0,0,0.026131
2022/04/11 03:05:00.003,n,216,4.68,3.24,5.4,19.4,84.3,1017.92,0,0,0,0,0.025253
2022/04/11 03:06:00.000,n,249,6.12,5.04,7.2,19.4,84.1,1017.92,0,0,0,0,0.024376
2022/04/11 03:07:00.000,n,269,2.16,1.44,2.52,19.4,84.5,1017.92,0,0,0,0,0.025253
2022/04/11 03:08:00.010,n,267,5.4,4.68,6.12,19.4,84.2,1017.82,0,0,0,0,0.023537
2022/04/11 03:09:00.008,n,287,3.96,2.16,5.04,19.3,83.9,1017.82,0,0,0,0,0.026131
2022/04/11 03:10:00.000,n,236,3.24,2.52,4.32,19.3,84,1017.82,0,0,0,0,0.025253
2022/04/11 03:11:00.002,n,262,6.12,5.4,6.84,19.3,84,1017.82,0,0,0,0,0.024376
2022/04/11 03:12:00.000,n,280,6.48,5.4,7.2,19.3,84.1,1017.82,0,0,0,0,0.023537
2022/04/11 03:13:00.000,n,227,3.96,3.6,4.32,19.3,84.4,1017.82,0,0,0,0,0.025253
2022/04/11 03:14:00.000,n,238,1.8,1.08,2.52,19.3,84.6,1017.82,0,0,0,0,0.026131
2022/04/11 03:15:00.004,n,195,4.32,3.24,7.2,19.3,84.7,1017.82,0,0,0,0,0.031357
2022/04/11 03:16:00.001,n,214,2.88,2.16,5.4,19.3,84.4,1017.82,0,0,0,0,0.036545
2022/04/11 03:17:00.014,n,257,3.6,1.44,4.68,19.3,84.4,1017.82,0,0,0,0,0.035667
2022/04/11 03:18:00.011,n,243,1.8,0.72,2.88,19.3,84.6,1017.82,0,0,0,0,0.033073
2022/04/11 03:19:00.000,n,255,5.04,4.32,6.12,19.2,84.4,1017.82,0,0,0,0,0.031357
2022/04/11 03:20:00.000,n,277,2.88,1.08,3.96,19.2,84.6,1017.82,0,0,0,0,0.031357
2022/04/11 03:21:00.003,n,281,5.4,5.04,6.84,19.2,84.5,1017.82,0,0,0,0,0.033073
2022/04/11 03:22:00.000,n,289,3.96,3.6,4.68,19.2,84.8,1017.82,0,0,0,0,0.03479
2022/04/11 03:23:00.000,n,239,5.04,4.68,5.4,19.3,84.8,1017.82,0,0,0,0,0.033073
2022/04/11 03:24:00.009,n,76,1.08,0.72,1.44,19.3,84.7,1017.82,0,0,0,0,0.03479
2022/04/11 03:25:00.006,n,237,2.52,1.44,4.32,19.2,84.8,1017.82,0,0,0,0,0.029564
2022/04/11 03:26:00.003,n,259,2.16,2.16,2.52,19.3,84.8,1017.82,0,0,0,0,0.030441
2022/04/11 03:27:00.000,n,239,1.8,1.08,2.16,19.2,84.8,1017.82,0,0,0,0,0.033073
2022/04/11 03:28:00.000,n,338,1.44,0.72,2.16,19.2,84.7,1017.82,0,0,0,0,0.033073
2022/04/11 03:29:00.000,n,130,1.8,1.08,2.52,19.2,84.8,1017.72,0,0,0,0,0.028725
2022/04/11 03:30:00.000,n,265,2.16,1.08,2.88,19.2,84.9,1017.72,0,0,0,0,0.02697
2022/04/11 03:31:00.004,n,267,4.68,4.32,5.76,19.2,84.9,1017.72,0,0,0,0,0.028725
2022/04/11 03:32:00.001,n,272,6.84,5.4,7.56,19.2,85.3,1017.72,0,0,0,0,0.033073
2022/04/11 03:33:00.000,n,166,3.24,1.44,8.28,19.2,85.1,1017.72,0,0,0,0,0.030441
2022/04/11 03:34:00.011,n,227,1.08,0.72,1.8,19.2,84.9,1017.72,0,0,0,0,0.028725
2022/04/11 03:35:00.008,n,220,2.16,1.8,2.52,19.2,84.9,1017.72,0,0,0,0,0.029564
2022/04/11 03:36:00.005,n,30,0.72,0,1.08,19.2,84.9,1017.72,0,0,0,0,0.032196
2022/04/11 03:37:00.000,n,300,3.6,2.16,4.68,19.2,85.4,1017.72,0,0,0,0,0.031357
2022/04/11 03:38:00.000,n,274,1.44,0.72,1.8,19.2,85.6,1017.72,0,0,0,0,0.028725
2022/04/11 03:39:00.000,n,264,3.24,2.52,3.96,19.3,85.1,1017.82,0,0,0,0,0.029564
2022/04/11 03:40:00.000,n,156,5.76,2.16,10.440002,19.2,85,1017.72,0,0,0,0,0.029564
2022/04/11 03:41:00.007,n,237,1.08,0.36,1.44,19.2,85,1017.72,0,0,0,0,0.028725
2022/04/11 03:42:00.004,n,196,1.08,0.36,1.8,19.2,85.1,1017.72,0,0,0,0,0.026131
2022/04/11 03:43:00.001,n,167,2.16,0.72,5.76,19.2,85.1,1017.72,0,0,0,0,0.028725
2022/04/11 03:44:00.000,n,187,5.04,3.24,7.92,19.2,85.1,1017.72,0,0,0,0,0.026131
2022/04/11 03:45:00.011,n,278,2.52,1.8,3.24,19.1,85.1,1017.72,0,0,0,0,0.02697
2022/04/11 03:46:00.000,n,177,2.52,2.16,2.52,19.1,85.1,1017.72,0,0,0,0,0.025215
2022/04/11 03:47:00.000,n,182,2.88,0.72,4.32,19.1,85.2,1017.72,0,0,0,0,0.024376
2022/04/11 03:48:00.003,n,186,1.44,1.08,1.8,19.1,85.2,1017.72,0,0,0,0,0.026131
2022/04/11 03:49:00.000,n,224,2.88,1.8,3.24,19.1,85.5,1017.72,0,0,0,0,0.024376
2022/04/11 03:50:00.000,n,287,5.04,3.24,8.28,19.1,85.3,1017.72,0,0,0,0,0.027809
2022/04/11 03:51:00.008,n,259,3.96,3.6,4.32,19.1,85.3,1017.72,0,0,0,0,0.033035
2022/04/11 03:52:00.006,n,233,3.96,3.6,4.32,19.1,85.3,1017.82,0,0,0,0,0.037384
2022/04/11 03:53:00.003,n,192,1.44,0.72,1.8,19.1,85.4,1017.82,0,0,0,0,0.031319
2022/04/11 03:54:00.000,n,173,4.32,2.52,6.48,19.1,85.4,1017.72,0,0,0,0,0.035667
2022/04/11 03:55:00.000,n,203,0.72,0.72,1.08,19.1,85.3,1017.72,0,0,0,0,0.033035
2022/04/11 03:56:00.000,n,163,0.36,0.36,0.72,19.1,85.2,1017.72,0,0,0,0,0.032158
2022/04/11 03:57:00.000,n,329,0.72,0.36,1.08,19.1,85.6,1017.72,0,0,0,0,0.030441
2022/04/11 03:58:00.005,n,200,1.8,1.08,2.16,19.1,85.5,1017.72,0,0,0,0,0.033951
2022/04/11 03:59:00.002,n,157,1.44,1.08,1.44,19.1,85.4,1017.72,0,0,0,0,0.030441
2022/04/11 04:00:00.000,n,173,0.36,0.36,0.72,19.1,85.4,1017.82,0,0,0,0,0.03479
2022/04/11 04:01:00.012,n,190,1.08,0.36,1.8,19.1,85.7,1017.82,0,0,0,0,0.031319
2022/04/11 04:02:00.011,n,109,0.72,0.36,5.04,19.1,85.5,1017.82,0,0,0,0,0.033035
2022/04/11 04:03:00.008,n,312,1.8,1.08,2.16,19.1,85.5,1017.82,0,0,0,0,0.027809
2022/04/11 04:04:00.000,n,195,1.8,0.36,6.12,19.1,85.5,1017.82,0,0,0,0,0.028687
2022/04/11 04:05:00.001,n,232,1.8,1.44,2.16,19.1,85.5,1017.82,0,0,0,0,0.033035
2022/04/11 04:06:00.000,n,210,2.88,2.52,6.12,19.1,85.6,1017.92,0,0,0,0,0.028687
2022/04/11 04:07:00.000,n,192,1.08,0.72,1.44,19.1,85.5,1017.92,0,0,0,0,0.030441
2022/04/11 04:08:00.000,n,120,0.36,0.36,1.44,19.1,85.5,1017.82,0,0,0,0,0.027809
2022/04/11 04:09:00.006,n,163,2.52,0.36,6.48,19.1,85.5,1017.82,0,0,0,0,0.02697
2022/04/11 04:10:00.004,n,114,0.72,0.36,1.08,19,85.5,1017.82,0,0,0,0,0.029564
2022/04/11 04:11:00.000,n,146,3.6,2.52,4.32,19,85.6,1017.82,0,0,0,0,0.030441
2022/04/11 04:12:00.013,n,208,3.24,2.88,3.24,19,85.6,1017.92,0,0,0,0,0.027809
2022/04/11 04:13:00.000,n,126,2.88,2.52,3.24,19,85.6,1017.92,0,0,0,0,0.027809
2022/04/11 04:14:00.000,n,166,1.44,0.72,1.8,19,85.6,1017.92,0,0,0,0,0.029564
2022/04/11 04:15:00.005,n,195,0.72,0.36,1.08,19,85.7,1017.92,0,0,0,0,0.027809
2022/04/11 04:16:00.002,n,214,3.96,3.6,7.2,19,85.6,1017.92,0,0,0,0,0.029564
2022/04/11 04:17:00.000,n,194,1.8,1.08,2.52,19,85.6,1017.92,0,0,0,0,0.029564
2022/04/11 04:18:00.000,n,268,3.24,2.88,3.96,19,85.8,1017.92,0,0,0,0,0.031319
2022/04/11 04:19:00.010,n,165,5.4,2.88,8.64,19,85.7,1017.92,0,0,0,0,0.030441
2022/04/11 04:20:00.007,n,177,2.16,1.8,2.88,19,85.6,1017.92,0,0,0,0,0.032158
2022/04/11 04:21:00.004,n,222,3.96,3.24,4.68,19,85.7,1017.92,0,0,0,0,0.029564
2022/04/11 04:22:00.002,n,232,1.44,0.72,1.8,19,85.8,1017.92,0,0,0,0,0.031319
2022/04/11 04:23:00.000,n,155,2.52,1.8,6.84,19,85.8,1017.92,0,0,0,0,0.032158
2022/04/11 04:24:00.000,n,167,7.2,3.6,9.36,19,85.7,1017.92,0,0,0,0,0.031319
2022/04/11 04:25:00.000,n,237,1.8,1.44,2.16,19,85.8,1017.92,0,0,0,0,0.032158
2022/04/11 04:26:00.008,n,266,1.44,0.72,2.16,19,85.8,1017.92,0,0,0,0,0.030441
2022/04/11 04:27:00.006,n,252,2.52,1.44,2.88,19,85.7,1017.92,0,0,0,0,0.029564
2022/04/11 04:28:00.002,n,278,2.16,1.44,2.52,19,85.7,1017.92,0,0,0,0,0.030441
2022/04/11 04:29:00.000,n,288,2.52,0.72,3.24,19,85.8,1017.92,0,0,0,0,0.029564
2022/04/11 04:30:00.012,n,282,2.16,0.72,2.88,19,85.8,1017.92,0,0,0,0,0.030441
2022/04/11 04:31:00.000,n,182,1.08,1.08,1.44,19,85.8,1017.92,0,0,0,0,0.029564
2022/04/11 04:32:00.000,n,342,1.44,1.08,2.16,19,85.9,1018.02,0,0,0,0,0.032158
2022/04/11 04:33:00.004,n,190,0.36,0.36,0.72,19,86,1018.02,0,0,0,0,0.031319
2022/04/11 04:34:00.000,n,121,1.8,1.08,2.16,19,86,1018.02,0,0,0,0,0.031319
2022/04/11 04:35:00.000,n,241,1.8,1.08,2.52,19,85.9,1017.92,0,0,0,0,0.033951
2022/04/11 04:36:00.000,n,138,1.08,0.36,2.16,19,85.9,1017.92,0,0,0,0,0.032158
2022/04/11 04:37:00.008,n,174,1.08,0.72,1.8,19,85.9,1017.92,0,0,0,0,0.028687
2022/04/11 04:38:00.005,n,182,0.72,0,1.08,19,85.9,1017.92,0,0,0,0,0.029564
2022/04/11 04:39:00.002,n,165,1.44,1.08,1.8,19,85.8,1017.92,0,0,0,0,0.026093
2022/04/11 04:40:00.000,n,211,1.8,1.08,2.16,18.9,85.8,1017.92,0,0,0,0,0.027809
2022/04/11 04:41:00.000,n,202,1.44,1.08,1.8,18.9,85.8,1017.92,0,0,0,0,0.029564
2022/04/11 04:42:00.000,n,228,4.68,4.68,5.04,18.9,85.8,1017.92,0,0,0,0,0.026093
2022/04/11 04:43:00.007,n,225,5.04,4.32,5.4,18.9,85.9,1017.92,0,0,0,0,0.030441
2022/04/11 04:44:00.004,n,179,1.8,1.08,1.8,18.9,85.9,1017.92,0,0,0,0,0.033035
2022/04/11 04:45:00.001,n,113,1.08,0.72,2.16,18.9,85.9,1017.92,0,0,0,0,0.030441
2022/04/11 04:46:00.000,n,144,1.08,0.72,1.8,18.9,85.9,1017.92,0,0,0,0,0.029564
2022/04/11 04:47:00.011,n,243,1.8,1.44,1.8,18.9,85.9,1017.92,0,0,0,0,0.030441
2022/04/11 04:48:00.009,n,295,2.16,0.72,3.24,18.9,86,1017.92,0,0,0,0,0.030441
2022/04/11 04:49:00.000,n,268,4.32,3.6,4.68,18.9,86.3,1017.92,0,0,0,0,0.029564
2022/04/11 04:50:00.003,n,265,5.04,4.68,6.12,19,86.2,1017.92,0,0,0,0,0.030441
2022/04/11 04:51:00.000,n,260,3.24,2.88,4.32,19,86,1017.92,0,0,0,0,0.02346
2022/04/11 04:52:00.000,n,260,6.84,6.48,7.2,18.9,85.9,1017.92,0,0,0,0,0.027809
2022/04/11 04:53:00.000,n,236,2.88,1.8,3.96,19,86.1,1017.92,0,0,0,0,0.029564
2022/04/11 04:54:00.008,n,229,4.68,4.32,5.4,19,86,1017.92,0,0,0,0,0.029564
2022/04/11 04:55:00.005,n,266,3.96,3.24,4.32,19,86.2,1017.92,0,0,0,0,0.029564
2022/04/11 04:56:00.002,n,285,4.32,3.6,4.68,19,86,1017.92,0,0,0,0,0.02697